This demonstration page uses our WeatherBlox Daily Observations layout. Learn more.

Left ArrowRight Arrow

44.89941, -97.11507

Hourly Observations for January 13, 2016

Temp ( °F °C ) Dew Point ( °F °C ) Humidity (%) Winds ( mph kmh ) Pressure ( in mb ) Visibility ( mi km ) Precip ( " mm )
12:53 am 00:53 Cloudy 10 -12.2 5 -15 80 80 S 8 13 30.02 1017 10 16 0.00 0.00
1:53 am 01:53 Cloudy 9 -12.8 3 -16.1 77 77 SSE 5 7 30.01 1016 10 16 0.00 0.00
2:14 am 02:14 Cloudy 8 -13.3 3 -16.1 80 80 SSE 7 11 30.06 1018 10 16 0.00 0.00
2:49 am 02:49 Partly Cloudy 7 -14 1 -17 78 78 S 9 15 30.03 1017 10 16 0.00 0.00
2:53 am 02:53 Mostly Clear 6 -14.4 1 -17.2 79 79 S 10 17 29.98 1015 10 16 0.00 0.00
3:53 am 03:53 Clear 6 -14.4 1 -17.2 79 79 S 5 7 30.00 1016 10 16 0.00 0.00
4:53 am 04:53 Clear 5 -15 0 -17.8 79 79 S 5 7 29.96 1015 10 16 0.00 0.00
5:53 am 05:53 Mostly Cloudy 6 -14.4 2 -16.7 83 83 S 5 7 29.95 1014 9 14 0.00 0.00
6:53 am 06:53 Clear 6 -14.4 2 -16.7 83 83 SSE 5 7 29.93 1014 9 14 0.00 0.00
7:53 am 07:53 Clear 5 -15 1 -17.2 83 83 S 5 7 29.92 1013 9 14 0.00 0.00
8:53 am 08:53 Sunny 9 -12.8 4 -15.6 80 80 S 5 7 29.90 1012 7 11 0.00 0.00
9:53 am 09:53 Sunny 13 -10.6 9 -12.8 84 84 SSW 7 11 29.88 1012 8 13 0.00 0.00
10:53 am 10:53 Sunny 20 -6.7 14 -10 78 78 SSW 7 11 29.86 1011 10 16 0.00 0.00
11:53 am 11:53 Sunny 27 -2.8 20 -6.7 75 75 WSW 8 13 29.83 1010 10 16 0.00 0.00
12:53 pm 12:53 Sunny 30 -1.1 22 -5.6 72 72 WSW 10 17 29.78 1009 10 16 0.00 0.00
1:53 pm 13:53 Sunny 31 -0.6 24 -4.4 76 76 WSW 12 19 29.75 1007 10 16 0.00 0.00
2:53 pm 14:53 Sunny 32 0 25 -3.9 75 75 WSW 13 20 29.74 1007 10 16 0.00 0.00
3:53 pm 15:53 Sunny 31 -0.6 24 -4.4 76 76 SW 7 11 29.74 1007 10 16 0.00 0.00
4:53 pm 16:53 Sunny 28 -2.2 22 -5.6 78 78 WSW 6 9 29.73 1007 10 16 0.00 0.00
5:53 pm 17:53 Clear 27 -2.8 22 -5.6 81 81 SW 7 11 29.72 1007 10 16 0.00 0.00
6:53 pm 18:53 Clear 25 -3.9 21 -6.1 85 85 SSE 5 7 29.72 1006 10 16 0.00 0.00
7:53 pm 19:53 Clear 25 -3.9 21 -6.1 85 85 S 7 11 29.71 1006 10 16 0.00 0.00
8:53 pm 20:53 Cloudy 25 -3.9 21 -6.1 85 85 S 5 7 29.69 1005 10 16 0.00 0.00
9:53 pm 21:53 Cloudy 26 -3.3 21 -6.1 81 81 Calm 29.65 1004 10 16 0.00 0.00
10:53 pm 22:53 Cloudy 27 -2.8 22 -5.6 81 81 SE 3 6 29.62 1003 10 16 0.00 0.00
11:53 pm 23:53 Cloudy 27 -2.8 22 -5.6 81 81 S 3 6 29.60 1002 10 16 0.00 0.00

Powered by AerisWeather